Weather in Rasskazovo

Russia / Novosibirsk Oblast     53°39′53″N   77°55′14″E
temp.,
°C
wind,
m/s
gust,
m/s
humid.,
%
clouds,
%
prec.,
mm/h
press.,
hPa
HPBL,
m
28 february, sun
sun2801:00−28sse449711 0.0 103755
04:00−28sse47940 0.0 103586
07:00−27se479126 0.0 1033118
10:00−25se5109098 0.0 1030227
13:00−19se699098 0.0 1027320
16:00−14se61093100 0.4 1024490
19:00−10se5994100 0.6 1020409
22:00−8se51095100 0.1 1016311
1 march, mon
mon101:00−5se5996100 0.8 1012423
04:00−3sse51097100 1.6 1008495
07:00+1sw61399100 4.2 1006544
10:00+1sw7149599 0.3 1006638
13:00+1sw61210099 0.3 1006642
16:000sw81393100 0.5 1006800
19:00−1wsw6129699 0.8 1007614
22:00−2wsw71489100 0.3 1009541
2 march, tue
tue201:00−10w5109596 0.4 1013252
04:00−13w489599 0.1 1015206
07:00−17w469897 0.1 101896
10:00−18wsw349794 0.0 101980
13:00−15wsw239188 0.0 1019242
16:00−13ssw3492100 0.0 1018327
19:00−15s2296100 0.0 101720
22:00−14sse1297100 0.2 101637
3 march, wed
wed301:00−14s2296100 0.6 101520
04:00−14sw2296100 0.4 101526
07:00−14w2296100 0.6 101624
10:00−14w3596100 0.2 1017206
13:00−12w469198 0.3 1019465
16:00−12wsw5790100 0.1 1021522
19:00−16sw4696100 0.1 1022113
22:00−18ssw369680 0.0 102390
4 march, thu
thu401:00−17s479784 0.0 1023124
04:00−16s489497 0.0 1021195
07:00−15s499494 0.0 1021206
10:00−15s599297 0.0 1020238
13:00−12s698898 0.0 1019334
16:00−9sse61087100 0.0 1017366
19:00−9sse51188100 0.0 1014334
22:00−8se61290100 0.0 1011374